Meteo Giornale » Osservazioni meteo Italia » Bergamo-Orio Al Serio

ore: 08:50 - Osservazioni Meteo Bergamo-Orio Al Serio
Lat. 45° 40' N Lon. 9° 42' E Alt. 238 metri s.l.m.

molto_nuvoloso Europe/Rome

18 °C

Molto Nuvoloso

Temp. 24 Ore

16 °C

24 °C

Nord

3.7 Km/h

Dew point 15 °C

Umidità 82 %

Visibilità  7 Km

Il sole sorge alle ore 07:06

Il sole tramonta alle ore 19:22

Data e Ora Cielo e Fenomeni T °C DP °C Um. % Pres. hPa Vis. km Vento km/h
Oggi h: 08:50 molto_nuvoloso Molto Nuvoloso 18 15 82 1017 7 N 3.7
Oggi h: 08:20 molto_nuvoloso Molto Nuvoloso 17 15 88 1016 10 N 5.5
Oggi h: 07:50 molto_nuvoloso Molto Nuvoloso 17 15 88 1016 8 N/NE 7.4
Oggi h: 07:20 molto_nuvoloso Molto Nuvoloso 16 15 93 1016 8 N/NE 7.4
Oggi h: 06:50 molto_nuvoloso Molto Nuvoloso 16 15 93 1016 7 N 9.3
Oggi h: 06:20 poco_nuvoloso Poco Nuvoloso 16 14 87 1016 9 N 5.5
Oggi h: 05:50 sereno Sereno 16 14 87 1016 8 N 7.4
Oggi h: 05:20 sereno Sereno 16 14 87 1016 9 N 5.5
Oggi h: 04:50 sereno Sereno 16 14 87 1016 8 N 5.5
Oggi h: 04:20 poco_nuvoloso Poco Nuvoloso 16 14 87 1016 8 N/NE 7.4
Oggi h: 03:50 sereno Sereno 16 15 93 1016 9 N 5.5
Oggi h: 03:20 sereno Sereno 16 15 93 1016 10 N/NE 7.4
Oggi h: 02:50 poco_nuvoloso Poco Nuvoloso 17 15 88 1016 9 N 5.5
Oggi h: 02:20 sereno Sereno 17 15 88 1017 10 N 7.4
Oggi h: 01:50 nuvoloso Nuvoloso 17 15 88 1016 10 N 5.5
Oggi h: 01:20 molto_nuvoloso Molto Nuvoloso 17 15 88 1016 10 N/NE 7.4
Oggi h: 00:50 molto_nuvoloso Molto Nuvoloso 17 15 88 1016 10 N/NE 7.4
Oggi h: 00:20 molto_nuvoloso Molto Nuvoloso 17 15 88 1016 10 N 5.5
Ieri h: 23:50 sereno Sereno 17 15 88 1016 9 N/NE 9.3
Ieri h: 23:20 sereno Sereno 17 15 88 1016 10 N 5.5
Ieri h: 22:50 sereno Sereno 18 15 82 1016 10 N 3.7
Ieri h: 22:20 nuvoloso Nuvoloso 18 15 82 1016 10 N 3.7
Ieri h: 21:50 molto_nuvoloso Molto Nuvoloso 19 15 77 1016 10 E 7.4
Ieri h: 21:20 molto_nuvoloso Molto Nuvoloso 18 16 88 1016 10 N/NE 9.3
Ieri h: 20:50 nuvoloso Nuvoloso 20 15 72 1016 10 N 7.4
Ieri h: 20:20 sereno Sereno 20 16 77 1015 10 N 3.7
Ieri h: 19:50 sereno Sereno 20 15 72 1015 10 N 3.7
Ieri h: 19:20 poco_nuvoloso Poco Nuvoloso 21 16 73 1015 10 N 1.8
Ieri h: 18:50 poco_nuvoloso Poco Nuvoloso 22 16 68 1015 10 N 1.8
Ieri h: 17:50 poco_nuvoloso Poco Nuvoloso 24 14 53 1015 10 N 5.5
Ieri h: 17:20 poco_nuvoloso Poco Nuvoloso 24 15 57 1015 10 N 5.5
Ieri h: 16:50 nuvoloso Nuvoloso 24 14 53 1015 10 N 5.5
Ieri h: 16:20 nuvoloso Nuvoloso 24 14 53 1015 10 SO 7.4
Ieri h: 15:50 nuvoloso Nuvoloso 23 15 60 1015 10 O/SO 9.3
Ieri h: 15:20 nuvoloso Nuvoloso 23 14 56 1016 10 N 5.5
Ieri h: 14:50 nuvoloso Nuvoloso 23 14 56 1016 10 O/SO 7.4
Ieri h: 14:20 nuvoloso Nuvoloso 24 14 53 1016 10 N 5.5
Ieri h: 13:50 nuvoloso Nuvoloso 23 14 56 1016 10 N 5.5
Ieri h: 13:20 nuvoloso Nuvoloso 23 13 53 1016 10 SO 9.3
Ieri h: 12:50 nuvoloso Nuvoloso 23 13 53 1016 8 S/SO 9.3
Ieri h: 12:20 nuvoloso Nuvoloso 22 13 56 1016 8 N 3.7
Ieri h: 11:50 nuvoloso Nuvoloso 22 11 49 1017 10 N 3.7
Ieri h: 11:20 nuvoloso Nuvoloso 22 12 53 1017 8 N 5.5
Ieri h: 10:50 nuvoloso Nuvoloso 21 14 64 1017 8 N/NE 11.1
Ieri h: 10:20 molto_nuvoloso Molto Nuvoloso 20 16 77 1017 8 N 5.5
Ieri h: 09:50 molto_nuvoloso Molto Nuvoloso 20 16 77 1017 8 N 1.8